Time,TemperatureF,DewpointF,PressureIn,WindDirection,WindDirectionDegrees,WindSpeedMPH,WindSpeedGustMPH,Humidity,HourlyPrecipIn,Conditions,Clouds,dailyrainin,SolarRadiationWatts/m^2,SoftwareType,DateUTC
2013-05-01 00:03:00,57.0,-99.9,-100.00,North,353,3.0,10.0,-999,0.00,,,-99.99,0.000000,,2013-05-01 10:03:00,
2013-05-01 00:12:00,57.0,-99.9,-100.00,North,353,3.0,10.0,-999,0.00,,,-99.99,0.000000,,2013-05-01 10:12:00,
2013-05-01 00:22:00,57.0,-99.9,-100.00,North,353,3.0,10.0,-999,0.00,,,-99.99,0.000000,,2013-05-01 10:22:00,
2013-05-01 00:42:00,57.0,55.0,-100.00,North,2,3.0,13.0,93,0.00,,,0.13,0.000000,,2013-05-01 10:42:00,
2013-05-01 00:52:00,57.0,55.0,-100.00,North,2,3.0,13.0,93,0.00,,,0.13,0.000000,,2013-05-01 10:52:00,
2013-05-01 01:02:00,57.0,55.0,-100.00,North,2,3.0,13.0,93,0.00,,,0.13,0.000000,,2013-05-01 11:02:00,
2013-05-01 01:11:00,57.0,55.0,-100.00,North,2,3.0,13.0,93,0.00,,,0.13,0.000000,,2013-05-01 11:11:00,
2013-05-01 01:21:00,57.0,55.0,-100.00,North,2,3.0,13.0,93,0.00,,,0.13,0.000000,,2013-05-01 11:21:00,
2013-05-01 01:42:00,56.0,51.0,-100.00,North,358,3.0,9.0,83,0.00,,,0.11,0.000000,,2013-05-01 11:42:00,
2013-05-01 01:52:00,56.0,51.0,-100.00,North,358,3.0,9.0,83,0.00,,,0.11,0.000000,,2013-05-01 11:52:00,
2013-05-01 02:01:00,56.0,51.0,-100.00,North,358,3.0,9.0,83,0.00,,,0.11,0.000000,,2013-05-01 12:01:00,
2013-05-01 02:11:00,56.0,51.0,-100.00,North,358,3.0,9.0,83,0.00,,,0.11,0.000000,,2013-05-01 12:11:00,
2013-05-01 02:21:00,56.0,51.0,-100.00,North,358,3.0,9.0,83,0.00,,,0.11,0.000000,,2013-05-01 12:21:00,
2013-05-01 02:42:00,56.0,51.0,-100.00,North,1,5.0,12.0,84,0.00,,,-99.99,0.000000,,2013-05-01 12:42:00,
2013-05-01 02:52:00,56.0,51.0,-100.00,North,1,5.0,12.0,84,0.00,,,-99.99,0.000000,,2013-05-01 12:52:00,
2013-05-01 03:01:00,56.0,51.0,-100.00,North,1,5.0,12.0,84,0.00,,,-99.99,0.000000,,2013-05-01 13:01:00,
2013-05-01 03:11:00,56.0,51.0,-100.00,North,1,5.0,12.0,84,0.00,,,-99.99,0.000000,,2013-05-01 13:11:00,
2013-05-01 03:21:00,56.0,51.0,-100.00,North,1,5.0,12.0,84,0.00,,,-99.99,0.000000,,2013-05-01 13:21:00,
2013-05-01 03:42:00,55.0,50.0,-100.00,North,3,4.0,9.0,83,0.00,,,0.10,0.000000,,2013-05-01 13:42:00,
2013-05-01 03:52:00,55.0,50.0,-100.00,North,3,4.0,9.0,83,0.00,,,0.10,0.000000,,2013-05-01 13:52:00,
2013-05-01 04:02:00,55.0,50.0,-100.00,North,3,4.0,9.0,83,0.00,,,0.10,0.000000,,2013-05-01 14:02:00,
2013-05-01 04:11:00,55.0,50.0,-100.00,North,3,4.0,9.0,83,0.00,,,0.10,0.000000,,2013-05-01 14:11:00,
2013-05-01 04:21:00,55.0,50.0,-100.00,North,3,4.0,9.0,83,0.00,,,0.10,0.000000,,2013-05-01 14:21:00,
2013-05-01 04:42:00,53.0,49.0,-100.00,North,1,4.0,8.0,86,0.00,,,-99.99,0.000000,,2013-05-01 14:42:00,
2013-05-01 04:52:00,53.0,49.0,-100.00,North,1,4.0,8.0,86,0.00,,,-99.99,0.000000,,2013-05-01 14:52:00,
2013-05-01 05:01:00,53.0,49.0,-100.00,North,1,4.0,8.0,86,0.00,,,-99.99,0.000000,,2013-05-01 15:01:00,
2013-05-01 05:11:00,53.0,49.0,-100.00,North,1,4.0,8.0,86,0.00,,,-99.99,0.000000,,2013-05-01 15:11:00,
2013-05-01 05:21:00,53.0,49.0,-100.00,North,1,4.0,8.0,86,0.00,,,-99.99,0.000000,,2013-05-01 15:21:00,
2013-05-01 05:43:00,52.0,49.0,-100.00,North,359,4.0,7.0,90,0.00,,,-99.99,0.000000,,2013-05-01 15:43:00,
2013-05-01 05:53:00,52.0,49.0,-100.00,North,359,4.0,7.0,90,0.00,,,-99.99,0.000000,,2013-05-01 15:53:00,
2013-05-01 06:03:00,52.0,49.0,-100.00,North,359,4.0,7.0,90,0.00,,,-99.99,0.000000,,2013-05-01 16:03:00,
2013-05-01 06:12:00,52.0,49.0,-100.00,North,359,4.0,7.0,90,0.00,,,-99.99,0.000000,,2013-05-01 16:12:00,
2013-05-01 06:22:00,52.0,49.0,-100.00,North,359,4.0,7.0,90,0.00,,,-99.99,0.000000,,2013-05-01 16:22:00,
2013-05-01 06:42:00,53.0,50.0,-100.00,North,358,4.0,7.0,89,0.00,,,0.10,0.000000,,2013-05-01 16:42:00,
2013-05-01 06:53:00,53.0,50.0,-100.00,North,358,4.0,7.0,89,0.00,,,0.10,0.000000,,2013-05-01 16:53:00,
2013-05-01 07:02:00,53.0,50.0,-100.00,North,358,4.0,7.0,89,0.00,,,0.10,0.000000,,2013-05-01 17:02:00,
2013-05-01 07:12:00,53.0,50.0,-100.00,North,358,4.0,7.0,89,0.00,,,0.10,0.000000,,2013-05-01 17:12:00,
2013-05-01 07:21:00,53.0,50.0,-100.00,North,358,4.0,7.0,89,0.00,,,0.10,0.000000,,2013-05-01 17:21:00,
2013-05-01 07:42:00,56.0,51.0,-100.00,North,352,3.0,8.0,82,0.00,,,0.10,41.000000,,2013-05-01 17:42:00,
2013-05-01 07:52:00,56.0,51.0,-100.00,North,352,3.0,8.0,82,0.00,,,0.10,41.000000,,2013-05-01 17:52:00,
2013-05-01 08:01:00,56.0,51.0,-100.00,North,352,3.0,8.0,82,0.00,,,0.10,41.000000,,2013-05-01 18:01:00,
2013-05-01 08:11:00,56.0,51.0,-100.00,North,352,3.0,8.0,82,0.00,,,0.10,41.000000,,2013-05-01 18:11:00,
2013-05-01 08:22:00,56.0,51.0,-100.00,North,352,3.0,8.0,82,0.00,,,0.10,41.000000,,2013-05-01 18:22:00,
2013-05-01 08:42:00,62.0,52.0,-100.00,NNE,22,3.0,12.0,70,0.00,,,0.10,323.000000,,2013-05-01 18:42:00,
2013-05-01 08:52:00,62.0,52.0,-100.00,NNE,22,3.0,12.0,70,0.00,,,0.10,323.000000,,2013-05-01 18:52:00,
2013-05-01 09:01:00,62.0,52.0,-100.00,NNE,22,3.0,12.0,70,0.00,,,0.10,323.000000,,2013-05-01 19:01:00,
2013-05-01 09:11:00,62.0,52.0,-100.00,NNE,22,3.0,12.0,70,0.00,,,0.10,323.000000,,2013-05-01 19:11:00,
2013-05-01 09:22:00,62.0,52.0,-100.00,NNE,22,3.0,12.0,70,0.00,,,0.10,323.000000,,2013-05-01 19:22:00,
2013-05-01 09:43:00,65.0,53.0,-100.00,NNE,24,4.0,15.0,65,0.00,,,0.10,548.000000,,2013-05-01 19:43:00,
2013-05-01 09:52:00,65.0,53.0,-100.00,NNE,24,4.0,15.0,65,0.00,,,0.10,548.000000,,2013-05-01 19:52:00,
2013-05-01 10:01:00,65.0,53.0,-100.00,NNE,24,4.0,15.0,65,0.00,,,0.10,548.000000,,2013-05-01 20:01:00,
2013-05-01 10:11:00,65.0,53.0,-100.00,NNE,24,4.0,15.0,65,0.00,,,0.10,548.000000,,2013-05-01 20:11:00,
2013-05-01 10:21:00,65.0,53.0,-100.00,NNE,24,4.0,15.0,65,0.00,,,0.10,548.000000,,2013-05-01 20:21:00,
2013-05-01 10:42:00,67.0,60.0,-100.00,East,81,3.0,13.0,77,0.00,,,0.10,593.000000,,2013-05-01 20:42:00,
2013-05-01 10:52:00,67.0,60.0,-100.00,East,81,3.0,13.0,77,0.00,,,0.10,593.000000,,2013-05-01 20:52:00,
2013-05-01 11:01:00,67.0,60.0,-100.00,East,81,3.0,13.0,77,0.00,,,0.10,593.000000,,2013-05-01 21:01:00,
2013-05-01 11:11:00,67.0,60.0,-100.00,East,81,3.0,13.0,77,0.00,,,0.10,593.000000,,2013-05-01 21:11:00,
2013-05-01 11:21:00,67.0,60.0,-100.00,East,81,3.0,13.0,77,0.00,,,0.10,593.000000,,2013-05-01 21:21:00,
2013-05-01 11:43:00,65.0,60.0,-100.00,ESE,121,3.0,15.0,84,0.00,,,0.10,313.000000,,2013-05-01 21:43:00,
2013-05-01 11:53:00,65.0,60.0,-100.00,ESE,121,3.0,15.0,84,0.00,,,0.10,313.000000,,2013-05-01 21:53:00,
2013-05-01 12:03:00,65.0,60.0,-100.00,ESE,121,3.0,15.0,84,0.00,,,0.10,313.000000,,2013-05-01 22:03:00,
2013-05-01 12:12:00,65.0,60.0,-100.00,ESE,121,3.0,15.0,84,0.00,,,0.10,313.000000,,2013-05-01 22:12:00,
2013-05-01 12:22:00,65.0,60.0,-100.00,ESE,121,3.0,15.0,84,0.00,,,0.10,313.000000,,2013-05-01 22:22:00,
2013-05-01 12:42:00,62.0,-99.9,-100.00,ESE,119,3.0,11.0,-999,0.00,,,0.10,160.000000,,2013-05-01 22:42:00,
2013-05-01 12:53:00,62.0,-99.9,-100.00,ESE,119,3.0,11.0,-999,0.00,,,0.10,160.000000,,2013-05-01 22:53:00,
2013-05-01 13:02:00,62.0,-99.9,-100.00,ESE,119,3.0,11.0,-999,0.00,,,0.10,160.000000,,2013-05-01 23:02:00,
2013-05-01 13:12:00,62.0,-99.9,-100.00,ESE,119,3.0,11.0,-999,0.00,,,0.10,160.000000,,2013-05-01 23:12:00,
2013-05-01 13:22:00,62.0,-99.9,-100.00,ESE,119,3.0,11.0,-999,0.00,,,0.10,160.000000,,2013-05-01 23:22:00,
2013-05-01 13:42:00,61.0,-99.9,-100.00,ESE,120,3.0,10.0,-999,0.01,,,0.07,175.000000,,2013-05-01 23:42:00,
2013-05-01 13:52:00,61.0,-99.9,-100.00,ESE,120,3.0,10.0,-999,0.01,,,0.07,175.000000,,2013-05-01 23:52:00,
2013-05-01 14:01:00,61.0,-99.9,-100.00,ESE,120,3.0,10.0,-999,0.01,,,0.07,175.000000,,2013-05-02 00:01:00,
2013-05-01 14:11:00,61.0,-99.9,-100.00,ESE,120,3.0,10.0,-999,0.01,,,0.07,175.000000,,2013-05-02 00:11:00,
2013-05-01 14:22:00,61.0,-99.9,-100.00,ESE,120,3.0,10.0,-999,0.01,,,0.07,175.000000,,2013-05-02 00:22:00,
2013-05-01 14:42:00,61.0,-99.9,-100.00,East,81,3.0,11.0,-999,0.01,,,0.07,245.000000,,2013-05-02 00:42:00,
2013-05-01 14:52:00,61.0,-99.9,-100.00,East,81,3.0,11.0,-999,0.01,,,0.07,245.000000,,2013-05-02 00:52:00,
2013-05-01 15:01:00,61.0,-99.9,-100.00,East,81,3.0,11.0,-999,0.01,,,0.07,245.000000,,2013-05-02 01:01:00,
2013-05-01 15:11:00,61.0,-99.9,-100.00,East,81,3.0,11.0,-999,0.01,,,0.07,245.000000,,2013-05-02 01:11:00,
2013-05-01 15:22:00,61.0,-99.9,-100.00,East,81,3.0,11.0,-999,0.01,,,0.07,245.000000,,2013-05-02 01:22:00,
2013-05-01 15:42:00,61.0,-99.9,-100.00,ENE,70,3.0,11.0,-999,0.01,,,0.07,209.000000,,2013-05-02 01:42:00,
2013-05-01 15:52:00,61.0,-99.9,-100.00,ENE,70,3.0,11.0,-999,0.01,,,0.07,209.000000,,2013-05-02 01:52:00,
2013-05-01 16:02:00,61.0,-99.9,-100.00,ENE,70,3.0,11.0,-999,0.01,,,0.07,209.000000,,2013-05-02 02:02:00,
2013-05-01 16:12:00,61.0,-99.9,-100.00,ENE,70,3.0,11.0,-999,0.01,,,0.07,209.000000,,2013-05-02 02:12:00,
2013-05-01 16:22:00,61.0,-99.9,-100.00,ENE,70,3.0,11.0,-999,0.01,,,0.07,209.000000,,2013-05-02 02:22:00,
2013-05-01 17:01:00,60.0,-99.9,-100.00,ENE,67,2.0,9.0,-999,0.01,,,0.06,127.000000,,2013-05-02 03:01:00,
2013-05-01 17:12:00,60.0,-99.9,-100.00,ENE,67,2.0,9.0,-999,0.01,,,0.06,127.000000,,2013-05-02 03:12:00,
2013-05-01 17:22:00,60.0,-99.9,-100.00,ENE,67,2.0,9.0,-999,0.01,,,0.06,127.000000,,2013-05-02 03:22:00,
2013-05-01 17:23:00,61.0,-99.9,-100.00,ENE,64,3.0,13.0,-999,0.08,,,0.14,107.000000,,2013-05-02 03:23:00,
2013-05-01 17:43:00,61.0,-99.9,-100.00,ENE,64,3.0,13.0,-999,0.08,,,0.14,107.000000,,2013-05-02 03:43:00,
2013-05-01 17:53:00,61.0,-99.9,-100.00,ENE,64,3.0,13.0,-999,0.08,,,0.14,107.000000,,2013-05-02 03:53:00,
2013-05-01 18:03:00,61.0,-99.9,-100.00,ENE,64,3.0,13.0,-999,0.08,,,0.14,107.000000,,2013-05-02 04:03:00,
2013-05-01 18:12:00,61.0,-99.9,-100.00,ENE,64,3.0,13.0,-999,0.08,,,0.14,107.000000,,2013-05-02 04:12:00,
2013-05-01 18:43:00,60.0,-99.9,-100.00,NNE,21,3.0,10.0,-999,0.10,,,0.24,38.000000,,2013-05-02 04:43:00,
2013-05-01 18:52:00,60.0,-99.9,-100.00,NNE,21,3.0,10.0,-999,0.10,,,0.24,38.000000,,2013-05-02 04:52:00,
2013-05-01 19:02:00,60.0,-99.9,-100.00,NNE,21,3.0,10.0,-999,0.10,,,0.24,38.000000,,2013-05-02 05:02:00,
2013-05-01 19:12:00,60.0,-99.9,-100.00,NNE,21,3.0,10.0,-999,0.10,,,0.24,38.000000,,2013-05-02 05:12:00,
2013-05-01 19:22:00,60.0,-99.9,-100.00,NNE,21,3.0,10.0,-999,0.10,,,0.24,38.000000,,2013-05-02 05:22:00,
2013-05-01 19:42:00,60.0,-99.9,-100.00,NNE,21,3.0,12.0,-999,0.12,,,0.35,6.000000,,2013-05-02 05:42:00,
2013-05-01 19:52:00,60.0,-99.9,-100.00,NNE,21,3.0,12.0,-999,0.12,,,0.35,6.000000,,2013-05-02 05:52:00,
2013-05-01 20:02:00,60.0,-99.9,-100.00,NNE,21,3.0,12.0,-999,0.12,,,0.35,6.000000,,2013-05-02 06:02:00,
2013-05-01 20:12:00,60.0,-99.9,-100.00,NNE,21,3.0,12.0,-999,0.12,,,0.35,6.000000,,2013-05-02 06:12:00,
2013-05-01 20:22:00,60.0,-99.9,-100.00,NNE,21,3.0,12.0,-999,0.12,,,0.35,6.000000,,2013-05-02 06:22:00,
2013-05-01 20:42:00,59.0,-99.9,-100.00,NE,53,3.0,10.0,-999,0.05,,,0.40,0.000000,,2013-05-02 06:42:00,
2013-05-01 20:52:00,59.0,-99.9,-100.00,NE,53,3.0,10.0,-999,0.05,,,0.40,0.000000,,2013-05-02 06:52:00,
2013-05-01 21:02:00,59.0,-99.9,-100.00,NE,53,3.0,10.0,-999,0.05,,,0.40,0.000000,,2013-05-02 07:02:00,
2013-05-01 21:11:00,59.0,-99.9,-100.00,NE,53,3.0,10.0,-999,0.05,,,0.40,0.000000,,2013-05-02 07:11:00,
2013-05-01 21:22:00,59.0,-99.9,-100.00,NE,53,3.0,10.0,-999,0.05,,,0.40,0.000000,,2013-05-02 07:22:00,
2013-05-01 21:42:00,59.0,-99.9,-100.00,North,6,3.0,15.0,-999,0.02,,,0.41,0.000000,,2013-05-02 07:42:00,
2013-05-01 21:52:00,59.0,-99.9,-100.00,North,6,3.0,15.0,-999,0.02,,,0.41,0.000000,,2013-05-02 07:52:00,
2013-05-01 22:02:00,59.0,-99.9,-100.00,North,6,3.0,15.0,-999,0.02,,,0.41,0.000000,,2013-05-02 08:02:00,
2013-05-01 22:11:00,59.0,-99.9,-100.00,North,6,3.0,15.0,-999,0.02,,,0.41,0.000000,,2013-05-02 08:11:00,
2013-05-01 22:22:00,59.0,-99.9,-100.00,North,6,3.0,15.0,-999,0.02,,,0.41,0.000000,,2013-05-02 08:22:00,
2013-05-01 22:42:00,59.0,-99.9,-100.00,NE,51,4.0,14.0,-999,0.00,,,0.41,0.000000,,2013-05-02 08:42:00,
2013-05-01 22:52:00,59.0,-99.9,-100.00,NE,51,4.0,14.0,-999,0.00,,,0.41,0.000000,,2013-05-02 08:52:00,
2013-05-01 23:02:00,59.0,-99.9,-100.00,NE,51,4.0,14.0,-999,0.00,,,0.41,0.000000,,2013-05-02 09:02:00,
2013-05-01 23:12:00,59.0,-99.9,-100.00,NE,51,4.0,14.0,-999,0.00,,,0.41,0.000000,,2013-05-02 09:12:00,
2013-05-01 23:22:00,59.0,-99.9,-100.00,NE,51,4.0,14.0,-999,0.00,,,0.41,0.000000,,2013-05-02 09:22:00,
2013-05-01 23:23:00,59.0,-99.9,-100.00,NNE,33,4.0,12.0,-999,0.00,,,0.41,0.000000,,2013-05-02 09:23:00,
2013-05-01 23:43:00,59.0,-99.9,-100.00,NNE,33,4.0,12.0,-999,0.00,,,0.41,0.000000,,2013-05-02 09:43:00,
2013-05-01 23:53:00,59.0,-99.9,-100.00,NNE,33,4.0,12.0,-999,0.00,,,0.41,0.000000,,2013-05-02 09:53:00,